This is the latest recevied weather packets stored in our database for station/object N1HQ. If no packets are shown the sender has not sent any weather packets the latest 10 day(s).
| Time | Temp. | Humidity | Pressure | Rain* | Wind** | Luminosity | Snow |
|---|---|---|---|---|---|---|---|
| 1788129363 | 30.56° C | 81% | 1014.2 hPa | 0 mm | - | - | - |
| 1788129088 | 31.11° C | 83% | 1014 hPa | 0 mm | - | - | - |
| 1788128818 | 30.56° C | 85% | 1013.9 hPa | 0 mm | - | - | - |
| 1788128553 | 30.56° C | 84% | 1013.9 hPa | 0 mm | - | - | - |
| 1788128296 | 30.56° C | 86% | 1013.9 hPa | 0 mm | - | - | - |
| 1788128028 | 30.56° C | 85% | 1013.9 hPa | 0 mm | - | - | - |
| 1788127783 | 30.56° C | 84% | 1013.9 hPa | 0 mm | - | - | - |
| 1788127496 | 30° C | 84% | 1014.1 hPa | 0 mm | - | - | - |
| 1788127236 | 29.44° C | 84% | 1014.2 hPa | 0 mm | - | - | - |
| 1788126988 | 29.44° C | 86% | 1014.3 hPa | 0 mm | - | - | - |
| 1788126722 | 29.44° C | 84% | 1014.3 hPa | 0 mm | - | - | - |
| 1788126468 | 29.44° C | 86% | 1014.2 hPa | 0 mm | - | - | - |
| 1788126216 | 29.44° C | 86% | 1014.1 hPa | 0 mm | - | - | - |
| 1788125936 | 29.44° C | 86% | 1014.2 hPa | 0 mm | - | - | - |
| 1788125678 | 29.44° C | 86% | 1014.2 hPa | 0 mm | - | - | - |
| 1788125396 | 29.44° C | 85% | 1014.2 hPa | 0 mm | - | - | - |
| 1788125128 | 29.44° C | 85% | 1014.3 hPa | 0 mm | - | - | - |
| 1788124876 | 28.89° C | 88% | 1014.3 hPa | 0 mm | - | - | - |
| 1788124634 | 28.89° C | 91% | 1014.5 hPa | 0 mm | - | - | - |
| 1788124378 | 28.33° C | 89% | 1014.6 hPa | 0 mm | - | - | - |
| 1788124108 | 28.33° C | 92% | 1014.5 hPa | 0 mm | - | - | - |
| 1788123823 | 28.33° C | 93% | 1014.6 hPa | 0 mm | - | - | - |
| 1788123526 | 28.33° C | 93% | 1014.5 hPa | 0 mm | - | - | - |
| 1788123256 | 27.78° C | 95% | 1014.3 hPa | 0 mm | - | - | - |
| 1788122993 | 27.78° C | 95% | 1014.1 hPa | 0 mm | - | - | - |
* Rain latest hour (hover to see other rain measurements)
** Current wind speed in m/s (hover to see current wind gust speed)